This is the latest recevied weather packets stored in our database for station/object LKNA. If no packets are shown the sender has not sent any weather packets the latest 1 day(s).
| Time | Temp. | Humidity | Pressure | Rain* | Wind** | Luminosity | Snow |
|---|---|---|---|---|---|---|---|
| 1778001665 | 22.22° C | 37% | - | - | 7.15 m/s, 140° | - | - |
| 1778000560 | 22.78° C | 35% | 1005 hPa | - | 6.26 m/s, 140° | - | - |
| 1777998664 | 23.89° C | 31% | 1005 hPa | - | 6.26 m/s, 130° | - | - |
| 1777998141 | 23.89° C | 27% | - | - | 6.26 m/s, 120° | - | - |
| 1777996872 | 23.89° C | 25% | 1005 hPa | - | 6.26 m/s, 120° | - | - |
| 1777995065 | 25° C | 23% | 1005 hPa | - | 5.36 m/s, 120° | - | - |
| 1777994448 | 23.89° C | 27% | - | - | 5.36 m/s, 120° | - | - |
| 1777993265 | 25° C | 25% | 1006 hPa | - | 5.81 m/s, 120° | - | - |
| 1777991470 | 23.89° C | 27% | 1006 hPa | - | 5.81 m/s, 120° | - | - |
| 1777990849 | 23.89° C | 31% | - | - | 6.26 m/s, 140° | - | - |
| 1777989666 | 23.89° C | 29% | 1007 hPa | - | 6.26 m/s, 140° | - | - |
| 1777987869 | 23.89° C | 31% | 1007 hPa | - | 5.81 m/s, 130° | - | - |
| 1777987235 | 22.78° C | 35% | - | - | 6.26 m/s, 140° | - | - |
| 1777986162 | 22.78° C | 33% | 1007 hPa | - | 5.81 m/s, 150° | - | - |
| 1777984270 | 22.78° C | 35% | 1008 hPa | - | 5.81 m/s, 140° | - | - |
| 1777983634 | 22.22° C | 40% | - | - | 6.26 m/s, 140° | - | - |
| 1777982473 | 22.22° C | 40% | 1008 hPa | - | 5.36 m/s, 150° | - | - |
| 1777980671 | 21.11° C | 43% | 1008 hPa | - | 5.36 m/s, 140° | - | - |
| 1777980035 | 21.11° C | 43% | - | - | 5.36 m/s, 120° | - | - |
| 1777978866 | 21.11° C | 43% | 1008 hPa | - | 5.36 m/s, 120° | - | - |
| 1777977070 | 20° C | 42% | 1009 hPa | - | 5.81 m/s, 120° | - | - |
| 1777976435 | 18.89° C | 45% | - | - | 5.36 m/s, 120° | - | - |
| 1777975361 | 18.89° C | 48% | 1009 hPa | - | 4.47 m/s, 110° | - | - |
| 1777973470 | 17.78° C | 48% | 1009 hPa | - | 4.47 m/s, 100° | - | - |
| 1777972833 | 17.78° C | 48% | - | - | 5.36 m/s, 110° | - | - |
* Rain since midnight (hover to see other rain measurements)
** Current wind speed in m/s (hover to see current wind gust speed)